Regional Weather Roundup
Issued by NWS

Home | Current Version | Previous Version | Text Only | Print | Product List | Glossary Off
Versions: 1 2 3 4 5 6 7 8 9 10 11 12 13 14 15 16 17 18 19 20 21 22 23 24 25 26 27

000
ASUS45 KTFX 281110
RWRMT
MONTANA REGIONAL WEATHER ROUNDUP
NATIONAL WEATHER SERVICE GREAT FALLS MT
500 AM MDT THU JUL 28 2016

NOTE: "FAIR" INDICATES FEW OR NO CLOUDS BELOW 12000 FEET WITH NO
SIGNIFICANT WEATHER AND/OR OBSTRUCTIONS TO VISIBILITY.

MTZ001>007-043-281200-
WEST OF THE DIVIDE

CITY           SKY/WX    TMP DP  RH WIND       PRES   REMARKS
KALISPELL      CLEAR     56  53  90 N10       30.13S
MISSOULA       CLEAR     60  48  64 CALM      30.15R
BUTTE          CLEAR     49  43  80 SE7       30.28R
MULLAN PASS    CLEAR     64  42  44 CALM      30.28S
DEER LODGE       N/A     57  52  82 W6        30.25S
EUREKA           N/A     52  50  93 CALM      30.18R
HAMILTON         N/A     57  46  67 CALM      30.15R
LIBBY            N/A     54  48  82 CALM      30.15R
PLAINS           N/A     57  53  86 CALM      30.13R
RONAN            N/A     55  50  83 CALM      30.18R
THOMPSON FALLS   N/A     54  54 100 CALM      30.17R VSB 0
$$

MTZ008-052>055-281200-
SOUTHWEST MONTANA

CITY           SKY/WX    TMP DP  RH WIND       PRES   REMARKS
BOZEMAN        CLEAR     59  53  80 N6        30.22R
DILLON         CLEAR     55  47  74 S5        30.23R
W YELLOWSTONE  CLOUDY    45  43  93 CALM      30.33R
ENNIS          CLEAR     52  45  76 SE5       30.30R
THREE FORKS      N/A     54  54 100 CALM      30.18S
TWIN BRIDGES     N/A     56  45  66 E3        30.19R
$$

MTZ009-010-012-014-046-048-049-054-281200-
EAST SLOPES AND CENTRAL MONTANA

CITY           SKY/WX    TMP DP  RH WIND       PRES   REMARKS
CUT BANK       PTCLDY    54  53  97 CALM      30.20R
GREAT FALLS    MOCLDY    58  51  78 NE6       30.19S
MALMSTROM AFB  CLOUDY    59  55  85 SW2       30.20R
HELENA         PTCLDY    63  51  65 SW8       30.19F
CHOTEAU          N/A     59  54  82 S5        30.21S
CONRAD           N/A     55  55 100 CALM      30.19S
$$

MTZ011-013-016-021-045-047-050-051-281200-
NORTH CENTRAL MONTANA

CITY           SKY/WX    TMP DP  RH WIND       PRES   REMARKS
HAVRE          CLEAR     57  54  89 S3        30.17S
N BAR RANCH    MOCLDY    54  52  94 W5        30.25R
CHINOOK          N/A     55  55 100 CALM      30.17S
$$

MTZ017>020-022>027-061-062-281200-
NORTHEAST MONTANA

CITY           SKY/WX    TMP DP  RH WIND       PRES   REMARKS
GLASGOW        CLEAR     57  55  93 VRB7      30.16R
JORDAN           N/A     58  57  97 N7        30.14S
SIDNEY         CLOUDY    62  60  93 E6        30.14R
WOLF POINT     CLOUDY    61  59  93 E3        30.15R
PLENTYWOOD       N/A     57  57 100 E5        30.16R
SCOBEY           N/A     48  36  63 CALM      30.15R VSB 0
$$

MTZ028>42-056>058-281200-
SOUTHCENTRAL AND SOUTHEAST MONTANA

CITY           SKY/WX    TMP DP  RH WIND       PRES   REMARKS
BAKER          CLOUDY    59  58  96 SE8       30.12F
BILLINGS       TSTM      60  57  89 S14       30.19F
LIVINGSTON     PTCLDY    58  54  86 SE7       30.23S
MILES CITY     CLOUDY    61  57  87 NW5       30.11S
EKALAKA          N/A     59  56  89 E2        30.11F
FORSYTH          N/A     61  61 100 W3        30.13R
LAUREL           N/A     60  56  87 SE7       30.16F
ROUNDUP          N/A     61  55  80 CALM      30.11R
$$

REGIONAL REPORTS...DAKOTAS

CITY           SKY/WX    TMP DP  RH WIND       PRES   REMARKS
WILLISTON      CLOUDY    61  58  90 NE6       30.14F
MINOT          CLOUDY    62  57  83 N3        30.16R
DICKINSON      LGT RAIN  60  60 100 W7        30.13R FOG
BEACH            N/A     55  55 100 NE6       30.16S
CROSBY         FOG       48  48 100 CALM      30.19R VSB 1/4
WATFORD CITY     N/A    N/A N/A N/A MISG        N/A
BISMARCK       CLOUDY    63  59  87 NE7       30.14S
GRAND FORKS    MOCLDY    60  56  86 N8        30.10R
FARGO          CLOUDY    62  60  93 N6        30.06R
BUFFALO SD       N/A     60  59  96 NE12      30.07R
RAPID CITY     CLOUDY    63  60  90 S6        30.06F
$$

REGIONAL REPORTS...WYOMING/IDAHO/WASHINGTON

CITY           SKY/WX    TMP DP  RH WIND       PRES   REMARKS
GILLETTE       MOCLDY    59  56  89 CALM      30.16R
SHERIDAN       RAIN      64  59  83 W12       30.22R
BUFFALO WY     LGT RAIN  60  52  74 W17       30.27R
CODY           PTCLDY    57  52  82 N8        30.28R
YELLOWSTONE LA   N/A     43  43 100 CALM      30.40R
IDAHO FALLS    CLEAR     58  46  64 N6        30.15R
SALMON         CLEAR     55  43  62 CALM      30.14R
BOISE          CLEAR     70  46  42 CALM      30.03R
SPOKANE        CLEAR     70  50  49 NE6       30.07R
$$

REGIONAL REPORTS...ALBERTA

CITY           SKY/WX    TMP DP  RH WIND       PRES   REMARKS
EDMONTON       PTCLDY    57  54  88 SW5       30.11S
CALGARY        PTCLDY    57  50  77 VRB2      30.19S
LETHBRIDGE     CLEAR     57  55  94 W6        30.16R
MEDICINE HAT   CLEAR     59  59 100 CALM      30.14S
WATERTON GATE    N/A     45  45 100 SW5         N/A
CARDSTON         N/A     54  50  87 SW8         N/A
MILK RIVER       N/A     55  54  94 W6          N/A
$$

REGIONAL REPORTS...SASKATCHEWAN

CITY           SKY/WX    TMP DP  RH WIND       PRES   REMARKS
SWIFT CURRENT  CLEAR     52  48  87 S7        30.17R
REGINA         PTCLDY    54  52  94 E7        30.18S
SASKATOON      PTCLDY    52  52 100 S3        30.16R
CYPRESS HILLS    N/A     55  52  88 S3          N/A
VAL MARIE        N/A     48  46  93 NE3         N/A
ASSINIBOIA       N/A     55  55 100 S5          N/A
$$




USA.gov is the U.S. government's official web portal to all federal, state and local government web resources and services.